Min-Kush

Kyrgyzstan     41˚40′39″N   74˚27′42″E
temp.,
°C
wind,
m/s
gust,
m/s
humid.,
%
clouds,
%
prec.,
mm/h
press.,
hPa
HPBL,
m
28 november, sat
sat2800:00−6˚sse1163100 0.0 102321
03:00−7˚ssw0165100 0.0 102321
06:00−6˚sw1163100 0.0 102421
09:00−4˚ssw3361100 0.1 102786
12:00−4˚ssw4571100 0.3 1034462
15:00−6˚ssw566156 0.3 1036906
18:00−10˚s338037 0.3 104074
21:00−11˚s337858 0.0 104270
29 november, sun
sun2900:00−12˚s337954 0.0 104242
03:00−13˚s22780 0.0 104225
06:00−15˚s11860 0.0 104321
09:00−14˚s11830 0.0 104335
12:00−10˚wnw22710 0.0 1040363
15:00−9˚wnw22685 0.0 1038384
18:00−13˚s11852 0.0 104022
21:00−14˚sse11840 0.0 104120
30 november, mon
mon3000:00−15˚s11820 0.0 104020
03:00−16˚sse11820 0.0 104020
06:00−16˚sse11790 0.0 104020
09:00−15˚se01740 0.0 103920
12:00−9˚wnw11530 0.0 1036233
15:00−8˚nw11510 0.0 1034287
18:00−13˚se11700 0.0 103521
21:00−14˚se116434 0.0 103521
1 december, tue
tue100:00−14˚sse115968 0.0 103321
03:00−14˚se015478 0.0 103221
06:00−14˚se114889 0.0 103021
09:00−12˚sse0143100 0.0 102922
12:00−7˚wnw1137100 0.0 1027154
15:00−7˚wnw1144100 0.0 1027195
18:00−9˚s1165100 0.1 103026
21:00−9˚ese0179100 0.1 103128
2 december, wed
wed200:00−11˚s119389 0.3 103223
03:00−11˚s119483 0.1 103222
06:00−11˚s119591 0.1 103221
09:00−10˚s1194100 0.1 103229
12:00−6˚w1185100 0.1 1030185
15:00−5˚nw1180100 0.0 1028214
18:00−9˚sse1192100 0.0 102921
21:00−8˚sse1191100 0.0 102922